Find Starlink 38289

NORAD ID: 100313 Int'l Des: 2026-184 Owner: SPXS Country: US Constellation: starlink operational

当前视图

正在加载3D地球...

About Starlink 38289

Starlink 38289 (NORAD 100313) is a starlink constellation satellite launched Aug 12, 2026 by SPXS of US. with a mass of 575.00 kg.

即将过境

Passes for default location (London). Set your location on the main map for personalized predictions.

高度历史

Loading altitude history...

两行轨道根数

1 A0313U 26184N 26249.62007007 .00028397 00000-0 52151-3 0 9999
2 A0313 97.2847 114.7912 0001095 86.5905 273.5472 15.49210652 5223
Epoch: Sep 6, 2026 • Age: 7 hours

当前状态

高度 423.2 km
远地点 / 近地点 N/A
速度 7.66 km/s
星下点 33.79°N, 11.69°W
发射日期 Aug 12, 2026
运行时间 25 days
类型 internet

技术详情

分类 Payload
质量 575.00 kg
干质量 530.00 kg
总质量 575.00 kg
长度 0.30 m
直径 4.10 m
跨度 29.00 m
形状 Box + pan
制造商 SPXS
平台类型 Starlink V2MO
阶段状态 In Orbit
所有者/国家 SPXS/US

Most Searched